Port Isabel, TX

10:29 PM CDT on May 21, 2018 (GMT -0500)
Port Isabel-Cameron County

Weather History for KPIL - December, 2012

Change the Weather History Date:

Wednesday, December 5, 2012

  Actual Average (WUND) Record (WUND)
Temperature  
Mean Temperature 70 °F -  
Max Temperature 77 °F - - (-1)
Min Temperature 63 °F - - (-1)
Cooling Degree Days 6    
Growing Degree Days 20 (Base 50)    
Moisture  
Dew Point 64 °F    
Average Humidity 82    
Maximum Humidity 94    
Minimum Humidity 60    
Precipitation  
Precipitation 0.11 in - - ()
Sea Level Pressure  
Sea Level Pressure 30.11 in    
Wind  
Wind Speed 9 mph (NNE)    
Max Wind Speed 16 mph    
Max Gust Speed 24 mph    
Visibility 8 miles    
Events Rain , Thunderstorm    
Averages and records for this station are not official NWS values.
T = Trace of Precipitation, MM = Missing Value Source: NWS Daily Summary

Daily Weather History Graph

Daily Weather History Graph

Search for Another Location

Airport or City:

Astronomy

Dec. 05, 2012 Rise Set
Actual Time 7:02 AM CST 5:37 PM CST
Civil Twilight 6:37 AM CST 6:02 PM CST
Nautical Twilight 6:09 AM CST 6:31 PM CST
Astronomical Twilight 5:41 AM CST 6:59 PM CST
Moon 11:59 PM CST (12/5) 11:53 AM CST (12/5)
Length of Visible Light 11h 24m
Length of Day
10h 34m
Waning Gibbous, 59% of the Moon is Illuminated
Dec 5
Waning Gibbous
Dec 6
Last Quarter
Dec 13
New
Dec 19
First Quarter
Dec 28
Full

Hourly Weather History & Observations

Time (CST) Temp. Dew Point Humidity Pressure Visibility Wind Dir Wind Speed Gust Speed Precip Events Conditions
12:53 AM 72.0 °F 69.1 °F 91% 30.10 in 9.0 mi East 5.8 mph - N/A   Mostly Cloudy
12:57 AM 71.6 °F 66.2 °F 83% 30.11 in 9.0 mi ENE 16.1 mph 19.6 mph 0.00 in Rain , Thunderstorm Light Rain
1:09 AM 71.6 °F 66.2 °F 83% 30.11 in 9.0 mi NE 12.7 mph 24.2 mph 0.00 in Rain , Thunderstorm Light Thunderstorms and Rain
1:16 AM 69.8 °F 66.2 °F 88% 30.12 in 7.0 mi NE 16.1 mph 23.0 mph 0.01 in Rain , Thunderstorm Thunderstorms and Rain
1:26 AM 69.8 °F 66.2 °F 88% 30.11 in 4.0 mi ENE 11.5 mph 17.3 mph 0.08 in Rain Heavy Rain
1:53 AM 69.1 °F 66.0 °F 90% 30.10 in 4.0 mi NNE 13.8 mph 18.4 mph 0.11 in Rain Heavy Rain
2:03 AM 69.8 °F 66.2 °F 88% 30.10 in 7.0 mi North 5.8 mph - 0.00 in Rain , Thunderstorm Light Rain
2:10 AM 69.8 °F 66.2 °F 88% 30.11 in 9.0 mi Calm Calm - 0.00 in Thunderstorm Mostly Cloudy
2:18 AM 69.8 °F 66.2 °F 88% 30.11 in 9.0 mi WSW 3.5 mph - 0.00 in   Mostly Cloudy
2:53 AM 69.1 °F 66.9 °F 93% 30.11 in 8.0 mi West 5.8 mph - 0.00 in   Clear
3:53 AM 69.1 °F 66.9 °F 93% 30.11 in 9.0 mi NW 6.9 mph - N/A   Overcast
4:05 AM 69.8 °F 66.2 °F 88% 30.11 in 10.0 mi NW 8.1 mph - N/A   Overcast
4:15 AM 69.8 °F 66.2 °F 88% 30.11 in 10.0 mi NNW 6.9 mph - N/A   Overcast
4:53 AM 70.0 °F 66.9 °F 90% 30.11 in 8.0 mi NNW 8.1 mph - N/A   Mostly Cloudy
5:18 AM 69.8 °F 68.0 °F 94% 30.12 in 8.0 mi NNW 6.9 mph - N/A   Overcast
5:53 AM 70.0 °F 68.0 °F 93% 30.13 in 8.0 mi North 6.9 mph - N/A   Overcast
6:26 AM 69.8 °F 68.0 °F 94% 30.13 in 8.0 mi North 9.2 mph - N/A   Scattered Clouds
6:53 AM 70.0 °F 68.0 °F 93% 30.14 in 8.0 mi North 10.4 mph - N/A   Partly Cloudy
8:41 AM 71.6 °F 66.2 °F 83% 30.18 in 7.0 mi NNW 9.2 mph - N/A   Overcast
8:53 AM 71.1 °F 66.9 °F 87% 30.19 in 7.0 mi NNW 11.5 mph - N/A   Overcast
9:53 AM 70.0 °F 64.9 °F 84% 30.19 in 7.0 mi NNW 11.5 mph - N/A   Overcast
10:26 AM 71.6 °F 64.4 °F 78% 30.19 in 7.0 mi NNW 9.2 mph - N/A   Overcast
10:53 AM 73.0 °F 64.9 °F 76% 30.18 in 8.0 mi NNW 9.2 mph - N/A   Overcast
11:44 AM 75.2 °F 64.4 °F 69% 30.16 in 8.0 mi NNE 15.0 mph - N/A   Scattered Clouds
11:53 AM 75.0 °F 64.0 °F 69% 30.15 in 9.0 mi North 13.8 mph - N/A   Partly Cloudy
12:53 PM 75.9 °F 63.0 °F 64% 30.12 in 9.0 mi NNE 11.5 mph - N/A   Mostly Cloudy
1:53 PM 75.9 °F 62.1 °F 62% 30.09 in 9.0 mi NNE 12.7 mph - N/A   Unknown
2:53 PM 77.0 °F 62.1 °F 60% 30.06 in 10.0 mi NNE 11.5 mph - N/A   Unknown
3:53 PM 75.9 °F 62.1 °F 62% 30.05 in 9.0 mi NE 12.7 mph - N/A   Clear
4:53 PM 73.0 °F 60.1 °F 64% 30.05 in 9.0 mi NE 9.2 mph - N/A   Clear
5:53 PM 68.0 °F 60.1 °F 76% 30.05 in 10.0 mi NE 5.8 mph - N/A   Clear
6:53 PM 66.9 °F 59.0 °F 76% 30.06 in 10.0 mi ENE 5.8 mph - N/A   Clear
7:53 PM 66.9 °F 60.1 °F 79% 30.07 in 10.0 mi NE 4.6 mph - N/A   Clear
8:53 PM 64.9 °F 60.1 °F 84% 30.07 in 10.0 mi ENE 5.8 mph - N/A   Clear
9:53 PM 64.0 °F 59.0 °F 84% 30.06 in 10.0 mi ENE 6.9 mph - N/A   Clear
10:53 PM 64.9 °F 59.0 °F 81% 30.06 in 10.0 mi ENE 5.8 mph - N/A   Clear
11:53 PM 63.0 °F 57.9 °F 84% 30.04 in 10.0 mi ENE 5.8 mph - N/A   Clear